sat.trackr.live / text

‹ back to catalog

STARLINK-5193

NORAD 54095 · 2022-136AW

PAYLOAD ACTIVE UNKNOWN

§ Identity

Operator
Country
US
Launch date
2022-10-20
Launch site
AFETR
Launch vehicle
Mass (kg)
RCS (m²)

Purposes: comms

External: N2YO · Heavens-Above · Gunter

§ Orbital elements

Epoch: 2026-05-24T23:09:17.750592Z

Period
95.44 min
Inclination
53.2132°
Eccentricity
0.0001102
Mean motion
15.08840178 rev/d
Perigee alt
539.0 km
Apogee alt
540.5 km
Semi-major
6,917.9 km
B*
-2.6535e-6
RAAN
351.3806°
Arg perigee
77.5069°
Mean anomaly
282.6047°
Rev number
19,850

§ Raw data

STARLINK-51931 54095U 22136AW  26144.96478878 -.00000330  00000+0 -26535-5 0  99942 54095  53.2132 351.3806 0001102  77.5069 282.6047 15.08840178198509

JSON: /api/v1/satellites/54095 · /tle

For live sub-satellite position, see the globe view (requires WebGL).

§ Visibility from observer

Set your observer location to see the next 7 days of passes ≥ 10°. The values pass through the URL so the page stays shareable.

No JS? Fill the form by hand. The geolocation button needs JavaScript.